Regional Weather Roundup
Issued by NWS State College, PA

Home | Current Version | Previous Version | Graphics & Text | Print | Product List | Glossary On
Versions: 1 2 3 4 5 6 7 8 9 10 11 12 13 14 15 16 17 18 19 20 21 22 23 24 25 26 27 28 29 30 31 32 33 34 35 36 37 38 39 40 41 42 43 44 45 46 47 48 49 50
000
ASUS41 KCTP 231210
RWRCTP

REGIONAL WEATHER ROUNDUP
NATIONAL WEATHER SERVICE STATE COLLEGE PA
800 AM EDT SUN APR 23 2017

Note: "fair" indicates few or no clouds below 12,000 feet with no
significant weather and/or obstructions to visibility.

* = STATION THAT DOES NOT REPORT PRECIPITATION /E.G. RAIN...SNOW...ETC/
    THUNDER OR FOG.

PAZ002>004-007>009-013>016-020>023-029>032-231300-
WESTERN PENNSYLVANIA

CITY           SKY/WX    TMP DP  RH WIND       PRES   REMARKS
ERIE           SUNNY     40  34  79 S5        30.15R
MEADVILLE      SUNNY     38  35  89 CALM      30.13R
FRANKLIN*      MOSUNNY   34  28  80 CALM      30.14R
NEW CASTLE     FAIR      38  36  92 CALM      30.15R
BEAVER COUNTY  NOT AVBL
BUTLER*        SUNNY     43  36  75 E7        30.14R
PITTSBURGH INT MOSUNNY   42  36  79 E8        30.11R
PITTSBURGH     SUNNY     42  32  67 NE5       30.11R
INDIANA*       SUNNY     39  36  87 CALM      30.15R
LATROBE        SUNNY     37  37 100 VRB5      30.12R
WASHINGTON CO* SUNNY     39  34  81 NE3       30.12R
$$

PAZ004>006-010>012-017>019-024>028-033>037-041-042-045-046-049>053-231300-
CENTRAL PENNSYLVANIA

CITY           SKY/WX    TMP DP  RH WIND       PRES   REMARKS
BRADFORD       SUNNY     36  34  92 CALM      30.12R
DUBOIS         SUNNY     38  32  79 E5        30.11R
CLEARFIELD     SUNNY     35  33  92 CALM      30.14R
JOHNSTOWN      SUNNY     41  33  73 E5        30.09R
ALTOONA        SUNNY     41  37  86 CALM      30.13R
STATE COLLEGE  SUNNY     39  36  87 CALM      30.14R
WILLIAMSPORT   SUNNY     40  36  86 CALM      30.15R
SELINSGROVE    SUNNY     40  36  86 CALM      30.16R
FT INDIANTOWN  SUNNY     45  37  72 CALM      30.14R
CAPITAL CITY   SUNNY     49  35  58 N5        30.14R
HARRISBURG     MOSUNNY   47  37  68 NW5       30.14R
YORK           SUNNY     46  39  76 NW3       30.13R
$$

PAZ038>040-043-044-047-048-054-055-060>062-067>071-231300-
EASTERN PENNSYLVANIA

CITY           SKY/WX    TMP DP  RH WIND       PRES   REMARKS
SCRANTON       SUNNY     42  35  76 CALM      30.12R
MOUNT POCONO   SUNNY     41  34  76 NE6       30.09R
ALLENTOWN      SUNNY     45  35  68 CALM      30.13R
QUAKERTOWN*    SUNNY     46  36  66 NE5       30.13R
READING        SUNNY     45  38  76 N5        30.13R
LANCASTER      SUNNY     47  39  74 N7        30.13R
COATESVILLE    SUNNY     45  36  70 N9        30.13R
POTTSTOWN      SUNNY     46  35  65 N3        30.14R
BLUE BELL      SUNNY     45  36  70 CALM      30.14R
DOYLESTOWN     SUNNY     47  36  65 N6        30.11R
WILLOW GROVE   NOT AVBL
NORTH PHILA    CLOUDY    49  38  65 N7        30.14R
PHILADELPHIA   PTSUNNY   48  37  65 N8        30.12R
$$



USA.gov is the U.S. government's official web portal to all federal, state and local government web resources and services.